Regional Weather Roundup
Issued by NWS

Home | Current Version | Previous Version | Graphics & Text | Print | Product List | Glossary Off
Versions: 1 2 3 4 5 6 7 8 9 10 11 12 13 14 15 16 17 18 19 20 21 22 23 24 25 26 27 28 29 30 31 32 33 34 35 36 37 38 39 40 41 42 43 44 45 46 47 48 49 50

000
ASUS43 KMKX 171700
RWRWI

WISCONSIN REGIONAL WEATHER ROUNDUP
NATIONAL WEATHER SERVICE MILWAUKEE/SULLIVAN WI
1100 AM CST TUE JAN 17 2017

NOTE: "FAIR" INDICATES FEW OR NO CLOUDS BELOW 12,000 FEET WITH NO
SIGNIFICANT WEATHER AND/OR OBSTRUCTIONS TO VISIBILITY.

WIZ001-002-006>008-014>016-023>028-171800-
NORTHWEST WISCONSIN

CITY           SKY/WX    TMP DP  RH WIND       PRES   REMARKS
SUPERIOR ARPT  CLOUDY    30  26  84 CALM      29.98F
ASHLAND        SUNNY     31  27  85 W5        29.95F WCI  26
HAYWARD        SUNNY     35  24  64 CALM      29.93F
SIREN          CLOUDY    32  24  72 N5        29.96F WCI  27
CUMBERLAND     CLOUDY    32  28  86 N6        29.94R WCI  26
RICE LAKE      CLOUDY    33  31  90 NW5       29.95S WCI  29
CHETEK         CLOUDY    33  32  97 NW3       29.93R
LADYSMITH      CLOUDY    35  33  91 NW3       29.92S
EAU CLAIRE     NOT AVBL
MENOMONIE      CLOUDY    35  35 100 NW7       29.93S WCI  29
NEW RICHMOND   CLOUDY    31  30  95 NW7       29.96S WCI  24
OSCEOLA        CLOUDY    29  24  82 NW6       30.00S WCI  23
$$

WIZ003>005-009-010-017-018-171800-
NORTH CENTRAL WISCONSIN

CITY           SKY/WX    TMP DP  RH WIND       PRES   REMARKS
MANITOWISH WTR CLOUDY    34  27  76 CALM      29.89S
ARBOR VITAE    SUNNY     37  30  78 SE6       29.89R WCI  32
WOODRUFF       SUNNY     37  30  78 SE6       29.89R WCI  32
RHINELANDER    CLOUDY    35  29  78 VRB5      29.88F WCI  31
EAGLE RIVER    CLOUDY    32  22  65 NE3       29.88F
LAND O LAKES   CLOUDY    34  20  57 E3        29.90S
PHILLIPS       CLOUDY    34  32  92 N3        29.88S
TOMAHAWK       CLOUDY    35  31  86 CALM      29.89F
MEDFORD        DRIZZLE   33  32  96 NE7       29.87F WCI  27
MERRILL        CLOUDY    34  33  97 NE3         N/A
$$

WIZ029-030-035-036-043>047-171800-
CENTRAL WISCONSIN

CITY           SKY/WX    TMP DP  RH WIND       PRES   REMARKS
WAUSAU         CLOUDY    34  32  92 N5        29.85F WCI  30
MOSINEE        NOT AVBL
MARSHFIELD     CLOUDY    34  32  92 N6        29.86S FOG     WCI  29
STEVENS POINT  FOG       32  32 100 CALM      29.88S VSB 3/4
WAUPACA        CLOUDY    35  33  93 CALM      29.87R FOG
WAUTOMA        CLOUDY    34  33  96 N6        29.87  FOG     WCI  29
WISC RAPIDS    CLOUDY    34  34 100 N5        29.88F FOG     WCI  30
CAMP DOUGLAS   NOT AVBL
$$

WIZ011>013-019>022-031-037>040-048>050-171800-
NORTHEAST WISCONSIN

CITY           SKY/WX    TMP DP  RH WIND       PRES   REMARKS
ANTIGO         CLOUDY    32  32 100 NE6       29.86S WCI  26
SHAWANO        CLOUDY    35  33  93 NE3       29.87S FOG
OCONTO         NOT AVBL
STURGEON BAY   CLOUDY    36  35  96 NE7       29.84S FOG     WCI  30
GREEN BAY      CLOUDY    35  35 100 N8        29.85S FOG     WCI  29
MANITOWOC      CLOUDY    36  36 100 MISG      29.83S FOG
APPLETON       FOG       34  34 100 N8        29.83S VSB 1   WCI  27
CLINTONVILLE   CLOUDY    32  32 100 N5        29.86F FOG     WCI  27
OSHKOSH        FOG       34  33  96 NW6       29.85S VSB 3/4 WCI  29
$$

WIZ032>034-041-042-053>061-171800-
SOUTHWEST WISCONSIN

CITY           SKY/WX    TMP DP  RH WIND       PRES   REMARKS
LA CROSSE      LGT RAIN  35  33  92 NW6       29.91S FOG     WCI  30
SPARTA         CLOUDY    33  33 100 CALM      29.90S FOG
VIROQUA        CLOUDY    32  32 100 CALM      29.88R VSB 1/2
BOSCOBEL       CLOUDY    36  34  92 SW3       29.91R
PRAIRIE DU CHI CLOUDY    34  33  96 CALM      29.92R FOG
PLATTEVILLE    CLOUDY    34  34 100 W7        29.90R VSB 1   WCI  28
$$

WIZ056-057-062-063-064-067-068-171800-
SOUTH CENTRAL WISCONSIN

CITY           SKY/WX    TMP DP  RH WIND       PRES   REMARKS
REEDSBURG      CLOUDY    33  33 100 CALM      29.88R FOG
BARABOO/DELLS  FOG       33  32  99 NW3       29.88R VSB 1/2
LONE ROCK      NOT AVBL
MINERAL POINT  FOG       34  34 100 W3        29.88R VSB 1/2
MADISON        CLOUDY    34  34 100 CALM      29.88R FOG
MIDDLETON      CLOUDY    35  35 100 W5        29.88R VSB 3/4 WCI  31
WATERTOWN      CLOUDY    34  34 100 NW5       29.86R FOG     WCI  30
MONROE         FOG       34  34 100 W7        29.87S VSB 1/2 WCI  28
JANESVILLE     NOT AVBL
$$

WIZ051-052-058>065-066-070>072-171800-
SOUTHEAST WISCONSIN

CITY           SKY/WX    TMP DP  RH WIND       PRES   REMARKS
MILWAUKEE      CLOUDY    39  35  86 W8        29.84S WCI  33
WAUKESHA       FOG       34  34 100 W6        29.85R VSB 1   WCI  29
MILWAUKEE/TIMM CLOUDY    36  34  93 W7        29.85R WCI  30
RACINE         CLOUDY    37  35  92 W8        29.86S FOG     WCI  31
KENOSHA        CLOUDY    37  35  92 W10       29.85R FOG     WCI  30
FOND DU LAC    FOG       34  32  92 N5        29.85R VSB 1/2 WCI  30
SHEBOYGAN      FOG       35  34  96 NW8       29.82S VSB 1/2 WCI  29
WEST BEND      CLOUDY    34  34 100 NW6       29.83S WCI  29
JUNEAU         CLOUDY    33  32  98 NW3       29.86R FOG
$$

LSZ147-162-171800-
LAKE SUPERIOR

STATION/POSITION TIME  TEMP    WIND        PRES    WAVE
                       AIR SEA DIR/SP/G            HT/PER
                 (UTC) (F)     (DEG/KT/KT) (MB)    (FT/S)
DEVILS ISLAND    1500   35      40/  6/  6 1015.1R
PORT WING        1630   28     190/  3/  5 1015.2S
SAXON HARBOR     1640   29     210/  2/  3 1014.6S
$$

LMZ867-665-643>646-171800-
LAKE MICHIGAN

STATION/POSITION TIME  TEMP    WIND        PRES    WAVE
                       AIR SEA DIR/SP/G            HT/PER
                 (UTC) (F)     (DEG/KT/KT) (MB)    (FT/S)
NORTHPORT PIER   1640   34      60/ 13/ 18 1011.2S
SISTER BAY       1520   35      70/  9/ 14   N/A
KEWAUNEE LAKESHO 1630   36      10/  5/ 11 1009.8R
SHEBOYGAN LAKESH 1600   36     340/ 11/ 13 1010.2R
PORT WASHINGTON  1640   37     300/  4/  7 1011.2S
MILWAUKEE LAKESH 1620   37     290/  6/  7   N/A
KENOSHA   LAKESH 1600   36     270/  6/ 10 1010.8
$$

TC  - TEMPERATURE IN CELSIUS
VSB - VISIBILITY IN STATUTE MILES
WCI - WIND CHILL INDEX
HX  - HEAT INDEX





USA.gov is the U.S. government's official web portal to all federal, state and local government web resources and services.